Hourly Data Report for May 09, 2020

TORONTO CITY
ONTARIO
Current Station Operator: ECCC - MSC

43°40'00.000" N
79°24'00.000" W
112.50 m
6158355
71508
XTO

Download Data

Hourly Data (May 2020)
Hourly Data Report for May 9, 2020
TIME
LST
Temp Definition
°C
Dew Point Definition
°C
Rel Hum Definition
%
Precip. Amount Definition
mm

Wind Dir Definition
10's deg

Wind Spd Definition
km/h
Visibility Definition
km
Stn Press Definition
kPa
Hmdx Definition


Wind Chill Definition


Weather Definition


00:00 -1.0 -8.8 55 0.0       100.00     LegendNANA
01:00 -1.5 -8.4 59 0.0       99.98     LegendNANA
02:00 -1.5 -7.0 66 0.0       99.99     LegendNANA
03:00 -1.7 -6.9 68 0.0       99.97     LegendNANA
04:00 -1.8 -6.4 71 0.0       99.98     LegendNANA
05:00 -1.5 -6.2 70 0.0       100.00     LegendNANA
06:00 -0.9 -6.0 68 0.0       100.01     LegendNANA
07:00 0.3 -5.5 65 0.0       100.02     LegendNANA
08:00 0.9 -5.6 62 0.0       100.00     LegendNANA
09:00 2.6 -5.9 54 0.0       99.97     LegendNANA
10:00 3.6 -6.8 47 0.0       99.94     LegendNANA
11:00 4.1 -4.9 52 0.0       99.96     LegendNANA
12:00 1.9 -2.0 75 0.0       100.04     LegendNANA
13:00 3.6 -4.6 55 0.5       100.03     LegendNANA
14:00 5.8 -8.8 34 0.0       100.04     LegendNANA
15:00 5.3 -7.9 38 0.0       100.08     LegendNANA
16:00 5.6 -8.0 37 0.0       100.10     LegendNANA
17:00 5.7 -7.1 39 0.2       100.12     LegendNANA
18:00 5.8 -6.7 40 0.0       100.14     LegendNANA
19:00 5.2 -5.9 44 0.2       100.16     LegendNANA
20:00 4.6 -5.7 47 0.0       100.23     LegendNANA
21:00 4.0 -6.3 47 0.0       100.29     LegendNANA
22:00 3.3 -5.7 51 0.0       100.28     LegendNANA
23:00 2.8 -5.2 56 0.0       100.25     LegendNANA

Notes on Data Quality.

Legend

  • E = Estimated
  • M = Missing
  • NA = Not Available*
  • [empty] = Indicates an unobserved value
Date modified: